| time (UTC) | temp F | wind direction | speed MPH | gust MPH | rain 1hr in | rain 24hr in | rain mn in | humidity % | barometer mb |
| 20260507122524 | 55 | 136 | 0.0 | 0.0 | 0.00 | 0.00 | 0.00 | 50 | 1016.0 |
| 20260507122020 | 55 | 135 | 0.0 | 0.0 | 0.00 | 0.00 | 0.00 | 50 | 1016.0 |
| 20260507121519 | 55 | 136 | 0.0 | 1.0 | 0.00 | 0.00 | 0.00 | 50 | 1016.0 |
| 20260507121015 | 56 | 136 | 0.0 | 1.0 | 0.00 | 0.00 | 0.00 | 48 | 1015.9 |
| 20260507120531 | 56 | 136 | 0.0 | 0.0 | 0.00 | 0.00 | 0.00 | 48 | 1015.9 |
| 20260507120039 | 56 | 136 | 0.0 | 1.0 | 0.00 | 0.00 | 0.00 | 49 | 1015.9 |
| 20260507115521 | 56 | 136 | 0.0 | 2.0 | 0.00 | 0.00 | 0.00 | 48 | 1016.0 |
| 20260507115016 | 56 | 136 | 0.0 | 3.0 | 0.00 | 0.00 | 0.00 | 48 | 1016.0 |
| 20260507114512 | 58 | 204 | 1.0 | 3.0 | 0.00 | 0.00 | 0.00 | 44 | 1016.0 |
| 20260507114012 | 58 | 204 | 1.0 | 4.0 | 0.00 | 0.00 | 0.00 | 45 | 1016.1 |
| 20260507113528 | 57 | 205 | 1.0 | 4.0 | 0.00 | 0.00 | 0.00 | 45 | 1016.1 |
| 20260507113024 | 57 | 206 | 0.0 | 4.0 | 0.00 | 0.00 | 0.00 | 45 | 1016.1 |
| 20260507112520 | 57 | 206 | 0.0 | 4.0 | 0.00 | 0.00 | 0.00 | 45 | 1016.1 |
| 20260507112016 | 58 | 221 | 0.0 | 4.0 | 0.00 | 0.00 | 0.00 | 44 | 1016.1 |
| 20260507111512 | 57 | 293 | 0.0 | 2.0 | 0.00 | 0.00 | 0.00 | 44 | 1016.0 |
| 20260507111028 | 57 | 293 | 0.0 | 2.0 | 0.00 | 0.00 | 0.00 | 44 | 1016.0 |
| 20260507110523 | 56 | 293 | 0.0 | 1.0 | 0.00 | 0.00 | 0.00 | 46 | 1015.9 |
| 20260507110035 | 57 | 293 | 0.0 | 1.0 | 0.00 | 0.00 | 0.00 | 45 | 1015.8 |
| 20260507105516 | 58 | 293 | 0.0 | 1.0 | 0.00 | 0.00 | 0.00 | 44 | 1015.8 |
| 20260507105012 | 57 | 293 | 0.0 | 1.0 | 0.00 | 0.00 | 0.00 | 46 | 1015.9 |
| 20260507104527 | 57 | 293 | 0.0 | 1.0 | 0.00 | 0.00 | 0.00 | 46 | 1015.8 |
| 20260507104023 | 58 | 293 | 0.0 | 1.0 | 0.00 | 0.00 | 0.00 | 45 | 1015.9 |
| 20260507103518 | 58 | 293 | 0.0 | 2.0 | 0.00 | 0.00 | 0.00 | 42 | 1015.9 |
| 20260507103014 | 59 | 293 | 0.0 | 2.0 | 0.00 | 0.00 | 0.00 | 41 | 1015.9 |
| 20260507102514 | 59 | 293 | 0.0 | 2.0 | 0.00 | 0.00 | 0.00 | 42 | 1016.0 |
| 20260507102029 | 59 | 293 | 0.0 | 2.0 | 0.00 | 0.00 | 0.00 | 42 | 1016.0 |
| 20260507101524 | 58 | 293 | 1.0 | 2.0 | 0.00 | 0.00 | 0.00 | 45 | 1016.0 |
| 20260507101020 | 58 | 293 | 0.0 | 0.0 | 0.00 | 0.00 | 0.00 | 44 | 1016.0 |
| 20260507100516 | 58 | 293 | 0.0 | 1.0 | 0.00 | 0.00 | 0.00 | 43 | 1016.1 |
| 20260507100043 | 59 | 293 | 0.0 | 1.0 | 0.00 | 0.00 | 0.00 | 42 | 1016.0 |
| 20260507095525 | 59 | 293 | 0.0 | 1.0 | 0.00 | 0.00 | 0.00 | 41 | 1016.2 |
| 20260507095024 | 59 | 293 | 0.0 | 0.0 | 0.00 | 0.00 | 0.00 | 41 | 1016.2 |
| 20260507094519 | 59 | 293 | 0.0 | 1.0 | 0.00 | 0.00 | 0.00 | 41 | 1016.2 |
| 20260507094015 | 60 | 293 | 0.0 | 2.0 | 0.00 | 0.00 | 0.00 | 39 | 1016.2 |
| 20260507093530 | 60 | 293 | 0.0 | 3.0 | 0.00 | 0.00 | 0.00 | 39 | 1016.2 |
| 20260507093025 | 60 | 293 | 0.0 | 2.0 | 0.00 | 0.00 | 0.00 | 39 | 1016.2 |
| 20260507092520 | 60 | 293 | 0.0 | 0.0 | 0.00 | 0.00 | 0.00 | 38 | 1016.2 |
| 20260507092016 | 61 | 293 | 0.0 | 1.0 | 0.00 | 0.00 | 0.00 | 37 | 1016.2 |
| 20260507091513 | 61 | 293 | 0.0 | 1.0 | 0.00 | 0.00 | 0.00 | 36 | 1016.3 |
| 20260507091029 | 61 | 293 | 0.0 | 1.0 | 0.00 | 0.00 | 0.00 | 35 | 1016.4 |
| 20260507090524 | 62 | 293 | 0.0 | 2.0 | 0.00 | 0.00 | 0.00 | 35 | 1016.3 |
| 20260507090032 | 62 | 293 | 0.0 | 2.0 | 0.00 | 0.00 | 0.00 | 34 | 1016.3 |
| 20260507085513 | 62 | 293 | 0.0 | 2.0 | 0.00 | 0.00 | 0.00 | 34 | 1016.3 |
| 20260507085029 | 62 | 292 | 0.0 | 2.0 | 0.00 | 0.00 | 0.00 | 34 | 1016.3 |
| 20260507084525 | 62 | 292 | 0.0 | 2.0 | 0.00 | 0.00 | 0.00 | 33 | 1016.4 |
| 20260507084020 | 62 | 292 | 0.0 | 3.0 | 0.00 | 0.00 | 0.00 | 34 | 1016.3 |
| 20260507083520 | 62 | 291 | 1.0 | 3.0 | 0.00 | 0.00 | 0.00 | 34 | 1016.3 |
| 20260507083016 | 63 | 290 | 0.0 | 1.0 | 0.00 | 0.00 | 0.00 | 32 | 1016.3 |
| 20260507082512 | 63 | 293 | 0.0 | 2.0 | 0.00 | 0.00 | 0.00 | 31 | 1016.4 |
| 20260507082027 | 63 | 292 | 0.0 | 3.0 | 0.00 | 0.00 | 0.00 | 31 | 1016.4 |
| 20260507081522 | 63 | 292 | 0.0 | 3.0 | 0.00 | 0.00 | 0.00 | 31 | 1016.5 |
| 20260507081018 | 63 | 292 | 1.0 | 4.0 | 0.00 | 0.00 | 0.00 | 31 | 1016.5 |
| 20260507080514 | 64 | 295 | 1.0 | 4.0 | 0.00 | 0.00 | 0.00 | 31 | 1016.4 |
| 20260507080026 | 64 | 294 | 1.0 | 4.0 | 0.00 | 0.00 | 0.00 | 31 | 1016.4 |
| 20260507075527 | 64 | 294 | 0.0 | 2.0 | 0.00 | 0.00 | 0.00 | 31 | 1016.4 |
| 20260507075022 | 64 | 293 | 0.0 | 4.0 | 0.00 | 0.00 | 0.00 | 31 | 1016.3 |
| 20260507074518 | 64 | 295 | 0.0 | 4.0 | 0.00 | 0.00 | 0.00 | 31 | 1016.5 |
| 20260507074014 | 64 | 296 | 0.0 | 2.0 | 0.00 | 0.00 | 0.00 | 31 | 1016.4 |
| 20260507073530 | 64 | 296 | 0.0 | 1.0 | 0.00 | 0.00 | 0.00 | 30 | 1016.4 |
| 20260507073025 | 64 | 296 | 0.0 | 4.0 | 0.00 | 0.00 | 0.00 | 30 | 1016.3 |
| 20260507072525 | 65 | 294 | 1.0 | 4.0 | 0.00 | 0.00 | 0.00 | 29 | 1016.3 |
| 20260507072021 | 64 | 296 | 0.0 | 1.0 | 0.00 | 0.00 | 0.00 | 29 | 1016.5 |
| 20260507071517 | 65 | 296 | 0.0 | 2.0 | 0.00 | 0.00 | 0.00 | 28 | 1016.4 |
| 20260507071012 | 65 | 296 | 0.0 | 2.0 | 0.00 | 0.00 | 0.00 | 28 | 1016.5 |
| 20260507070528 | 64 | 296 | 0.0 | 2.0 | 0.00 | 0.00 | 0.00 | 29 | 1016.4 |
| 20260507070037 | 64 | 296 | 0.0 | 2.0 | 0.00 | 0.00 | 0.00 | 29 | 1016.5 |
| 20260507065518 | 65 | 296 | 1.0 | 2.0 | 0.00 | 0.00 | 0.00 | 29 | 1016.4 |
| 20260507065018 | 65 | 296 | 1.0 | 2.0 | 0.00 | 0.00 | 0.00 | 28 | 1016.3 |
| 20260507064514 | 65 | 296 | 0.0 | 2.0 | 0.00 | 0.00 | 0.00 | 27 | 1016.4 |
| 20260507064029 | 66 | 296 | 0.0 | 3.0 | 0.00 | 0.00 | 0.00 | 28 | 1016.4 |
| 20260507063524 | 66 | 296 | 1.0 | 2.0 | 0.00 | 0.00 | 0.00 | 27 | 1016.4 |
| 20260507063020 | 66 | 296 | 0.0 | 2.0 | 0.00 | 0.00 | 0.00 | 27 | 1016.4 |
| 20260507062516 | 66 | 296 | 1.0 | 2.0 | 0.00 | 0.00 | 0.00 | 26 | 1016.3 |
| 20260507062012 | 67 | 296 | 1.0 | 2.0 | 0.00 | 0.00 | 0.00 | 26 | 1016.3 |
| 20260507061511 | 66 | 296 | 1.0 | 4.0 | 0.00 | 0.00 | 0.00 | 27 | 1016.3 |
| 20260507061027 | 66 | 296 | 1.0 | 6.0 | 0.00 | 0.00 | 0.00 | 27 | 1016.3 |
| 20260507060523 | 67 | 299 | 1.0 | 6.0 | 0.00 | 0.00 | 0.00 | 26 | 1016.3 |
| 20260507060030 | 66 | 288 | 1.0 | 4.0 | 0.00 | 0.00 | 0.00 | 26 | 1016.3 |
| 20260507055511 | 67 | 290 | 1.0 | 4.0 | 0.00 | 0.00 | 0.00 | 26 | 1016.3 |
| 20260507055027 | 67 | 290 | 1.0 | 3.0 | 0.00 | 0.00 | 0.00 | 26 | 1016.3 |
| 20260507054523 | 67 | 290 | 1.0 | 4.0 | 0.00 | 0.00 | 0.00 | 26 | 1016.3 |
| 20260507054019 | 67 | 289 | 1.0 | 4.0 | 0.00 | 0.00 | 0.00 | 25 | 1016.4 |
| 20260507053518 | 67 | 288 | 1.0 | 4.0 | 0.00 | 0.00 | 0.00 | 25 | 1016.4 |
| 20260507053014 | 67 | 287 | 1.0 | 4.0 | 0.00 | 0.00 | 0.00 | 25 | 1016.3 |
| 20260507052530 | 67 | 290 | 1.0 | 4.0 | 0.00 | 0.00 | 0.00 | 25 | 1016.4 |
| 20260507052026 | 67 | 290 | 2.0 | 6.0 | 0.00 | 0.00 | 0.00 | 25 | 1016.2 |
| 20260507051522 | 68 | 286 | 1.0 | 7.0 | 0.00 | 0.00 | 0.00 | 25 | 1016.3 |
| 20260507051018 | 68 | 285 | 1.0 | 7.0 | 0.00 | 0.00 | 0.00 | 25 | 1016.3 |
| 20260507050513 | 68 | 288 | 2.0 | 4.0 | 0.00 | 0.00 | 0.00 | 25 | 1016.3 |
| 20260507050025 | 68 | 290 | 1.0 | 3.0 | 0.00 | 0.00 | 0.00 | 26 | 1016.2 |
| 20260507045527 | 68 | 290 | 1.0 | 2.0 | 0.00 | 0.00 | 0.00 | 25 | 1016.1 |
| 20260507045023 | 68 | 290 | 1.0 | 2.0 | 0.00 | 0.00 | 0.00 | 25 | 1016.1 |
| 20260507044518 | 68 | 290 | 0.0 | 3.0 | 0.00 | 0.00 | 0.00 | 25 | 1016.0 |
| 20260507044014 | 69 | 290 | 0.0 | 3.0 | 0.00 | 0.00 | 0.00 | 24 | 1016.0 |
| 20260507043530 | 69 | 290 | 0.0 | 7.0 | 0.00 | 0.00 | 0.00 | 24 | 1016.0 |
| 20260507043026 | 69 | 296 | 1.0 | 7.0 | 0.00 | 0.00 | 0.00 | 24 | 1015.8 |
| 20260507042525 | 69 | 293 | 2.0 | 4.0 | 0.00 | 0.00 | 0.00 | 24 | 1015.8 |
| 20260507042021 | 69 | 296 | 0.0 | 4.0 | 0.00 | 0.00 | 0.00 | 24 | 1015.8 |
| 20260507041517 | 70 | 292 | 1.0 | 5.0 | 0.00 | 0.00 | 0.00 | 23 | 1015.8 |
| 20260507041013 | 70 | 292 | 2.0 | 5.0 | 0.00 | 0.00 | 0.00 | 23 | 1015.8 |
| 20260507040528 | 70 | 294 | 1.0 | 5.0 | 0.00 | 0.00 | 0.00 | 23 | 1015.8 |
| 20260507040036 | 70 | 298 | 1.0 | 5.0 | 0.00 | 0.00 | 0.00 | 23 | 1015.7 |
| 20260507035517 | 70 | 293 | 1.0 | 4.0 | 0.00 | 0.00 | 0.00 | 23 | 1015.7 |
| 20260507035017 | 71 | 302 | 2.0 | 4.0 | 0.00 | 0.00 | 0.00 | 22 | 1015.7 |
| 20260507034533 | 71 | 292 | 1.0 | 5.0 | 0.00 | 0.00 | 0.00 | 22 | 1015.5 |
| 20260507034028 | 71 | 299 | 2.0 | 5.0 | 0.00 | 0.00 | 0.00 | 22 | 1015.6 |
| 20260507033524 | 71 | 304 | 1.0 | 3.0 | 0.00 | 0.00 | 0.00 | 22 | 1015.4 |
| 20260507033020 | 71 | 311 | 1.0 | 3.0 | 0.00 | 0.00 | 0.00 | 23 | 1015.5 |
| 20260507032516 | 71 | 289 | 1.0 | 3.0 | 0.00 | 0.00 | 0.00 | 23 | 1015.4 |
| 20260507032031 | 71 | 288 | 1.0 | 6.0 | 0.00 | 0.00 | 0.00 | 22 | 1015.4 |
| 20260507031527 | 72 | 286 | 2.0 | 6.0 | 0.00 | 0.00 | 0.00 | 22 | 1015.2 |
| 20260507031027 | 72 | 296 | 1.0 | 4.0 | 0.00 | 0.00 | 0.00 | 22 | 1015.3 |
| 20260507030522 | 72 | 300 | 1.0 | 4.0 | 0.00 | 0.00 | 0.00 | 22 | 1015.2 |
| 20260507030030 | 72 | 303 | 1.0 | 4.0 | 0.00 | 0.00 | 0.00 | 22 | 1015.1 |
| 20260507025531 | 72 | 308 | 1.0 | 3.0 | 0.00 | 0.00 | 0.00 | 21 | 1015.1 |
| 20260507025027 | 73 | 312 | 0.0 | 5.0 | 0.00 | 0.00 | 0.00 | 21 | 1015.0 |
| 20260507024523 | 73 | 312 | 1.0 | 5.0 | 0.00 | 0.00 | 0.00 | 21 | 1014.9 |
| 20260507024018 | 73 | 327 | 1.0 | 5.0 | 0.00 | 0.00 | 0.00 | 21 | 1014.8 |
| 20260507023518 | 73 | 295 | 1.0 | 5.0 | 0.00 | 0.00 | 0.00 | 21 | 1014.8 |
| 20260507023014 | 74 | 326 | 1.0 | 7.0 | 0.00 | 0.00 | 0.00 | 20 | 1014.8 |
| 20260507022530 | 74 | 323 | 1.0 | 3.0 | 0.00 | 0.00 | 0.00 | 20 | 1014.8 |
| 20260507022025 | 74 | 320 | 1.0 | 2.0 | 0.00 | 0.00 | 0.00 | 21 | 1014.7 |
| 20260507021521 | 74 | 320 | 1.0 | 3.0 | 0.00 | 0.00 | 0.00 | 20 | 1014.7 |
| 20260507021017 | 74 | 321 | 1.0 | 4.0 | 0.00 | 0.00 | 0.00 | 20 | 1014.7 |
| 20260507020533 | 75 | 298 | 1.0 | 5.0 | 0.00 | 0.00 | 0.00 | 20 | 1014.7 |
| 20260507020045 | 75 | 307 | 1.0 | 5.0 | 0.00 | 0.00 | 0.00 | 20 | 1014.6 |
| 20260507015526 | 75 | 348 | 0.0 | 5.0 | 0.00 | 0.00 | 0.00 | 21 | 1014.4 |
| 20260507015022 | 76 | 299 | 2.0 | 5.0 | 0.00 | 0.00 | 0.00 | 19 | 1014.5 |
| 20260507014517 | 76 | 326 | 1.0 | 5.0 | 0.00 | 0.00 | 0.00 | 19 | 1014.5 |
| 20260507014033 | 76 | 345 | 1.0 | 7.0 | 0.00 | 0.00 | 0.00 | 20 | 1014.5 |
| 20260507013021 | 76 | 324 | 1.0 | 5.0 | 0.00 | 0.00 | 0.00 | 19 | 1014.6 |
| 20260507012520 | 76 | 336 | 1.0 | 5.0 | 0.00 | 0.00 | 0.00 | 19 | 1014.6 |
| 20260507012016 | 77 | 317 | 1.0 | 5.0 | 0.00 | 0.00 | 0.00 | 20 | 1014.5 |
| 20260507011532 | 77 | 298 | 2.0 | 5.0 | 0.00 | 0.00 | 0.00 | 19 | 1014.5 |
| 20260507010524 | 77 | 356 | 3.0 | 7.0 | 0.00 | 0.00 | 0.00 | 20 | 1014.5 |
| 20260507010031 | 77 | 354 | 1.0 | 5.0 | 0.00 | 0.00 | 0.00 | 19 | 1014.6 |
| 20260507005532 | 78 | 312 | 2.0 | 5.0 | 0.00 | 0.00 | 0.00 | 19 | 1014.6 |
| 20260507005028 | 78 | 294 | 1.0 | 9.0 | 0.00 | 0.00 | 0.00 | 18 | 1014.5 |
| 20260507004528 | 78 | 290 | 4.0 | 9.0 | 0.00 | 0.00 | 0.00 | 19 | 1014.6 |
| 20260507004024 | 79 | 352 | 1.0 | 9.0 | 0.00 | 0.00 | 0.00 | 19 | 1014.5 |
| 20260507003520 | 79 | 273 | 2.0 | 9.0 | 0.00 | 0.00 | 0.00 | 19 | 1014.5 |
| 20260507003015 | 79 | 294 | 2.0 | 9.0 | 0.00 | 0.00 | 0.00 | 18 | 1014.5 |
| 20260507002531 | 79 | 277 | 2.0 | 9.0 | 0.00 | 0.00 | 0.00 | 18 | 1014.5 |
| 20260507002027 | 78 | 285 | 4.0 | 8.0 | 0.00 | 0.00 | 0.00 | 18 | 1014.4 |
| 20260507001523 | 79 | 302 | 3.0 | 7.0 | 0.00 | 0.00 | 0.00 | 18 | 1014.4 |
| 20260507001023 | 79 | 344 | 1.0 | 6.0 | 0.00 | 0.00 | 0.00 | 19 | 1014.6 |
| 20260507000518 | 79 | 1 | 1.0 | 7.0 | 0.00 | 0.00 | 0.00 | 18 | 1014.5 |
| 20260507000045 | 80 | 335 | 2.0 | 7.0 | 0.00 | 0.00 | 0.00 | 18 | 1014.5 |
| 20260506235526 | 80 | 298 | 2.0 | 9.0 | 0.00 | 0.00 | 0.00 | 18 | 1014.5 |
| 20260506235022 | 79 | 283 | 3.0 | 9.0 | 0.00 | 0.00 | 0.00 | 17 | 1014.5 |
| 20260506234518 | 80 | 290 | 3.0 | 8.0 | 0.00 | 0.00 | 0.00 | 17 | 1014.5 |
| 20260506234013 | 80 | 292 | 4.0 | 8.0 | 0.00 | 0.00 | 0.00 | 17 | 1014.4 |
| 20260506233532 | 80 | 273 | 2.0 | 8.0 | 0.00 | 0.00 | 0.00 | 17 | 1014.4 |
| 20260506233028 | 80 | 353 | 3.0 | 7.0 | 0.00 | 0.00 | 0.00 | 17 | 1014.4 |
| 20260506232026 | 80 | 19 | 2.0 | 6.0 | 0.00 | 0.00 | 0.00 | 18 | 1014.5 |
| 20260506231522 | 80 | 31 | 3.0 | 11.0 | 0.00 | 0.00 | 0.00 | 18 | 1014.5 |
| 20260506231018 | 79 | 333 | 4.0 | 11.0 | 0.00 | 0.00 | 0.00 | 18 | 1014.6 |
| 20260506230514 | 78 | 358 | 4.0 | 7.0 | 0.00 | 0.00 | 0.00 | 18 | 1014.7 |
| 20260506230043 | 80 | 31 | 3.0 | 6.0 | 0.00 | 0.00 | 0.00 | 18 | 1014.8 |
| 20260506225524 | 80 | 332 | 1.0 | 4.0 | 0.00 | 0.00 | 0.00 | 18 | 1014.8 |
| 20260506225023 | 79 | 309 | 1.0 | 4.0 | 0.00 | 0.00 | 0.00 | 19 | 1014.7 |
| 20260506224519 | 79 | 342 | 1.0 | 8.0 | 0.00 | 0.00 | 0.00 | 18 | 1014.8 |
| 20260506224014 | 79 | 2 | 4.0 | 8.0 | 0.00 | 0.00 | 0.00 | 19 | 1014.8 |
| 20260506223530 | 80 | 281 | 2.0 | 7.0 | 0.00 | 0.00 | 0.00 | 18 | 1014.7 |
| 20260506223026 | 81 | 276 | 3.0 | 6.0 | 0.00 | 0.00 | 0.00 | 17 | 1014.8 |
| 20260506222521 | 80 | 293 | 2.0 | 9.0 | 0.00 | 0.00 | 0.00 | 16 | 1014.9 |
| 20260506222017 | 81 | 312 | 4.0 | 10.0 | 0.00 | 0.00 | 0.00 | 18 | 1014.9 |
| 20260506221517 | 79 | 29 | 4.0 | 10.0 | 0.00 | 0.00 | 0.00 | 19 | 1014.9 |
| 20260506221032 | 80 | 301 | 4.0 | 9.0 | 0.00 | 0.00 | 0.00 | 19 | 1015.0 |
| 20260506220527 | 81 | 285 | 3.0 | 7.0 | 0.00 | 0.00 | 0.00 | 19 | 1015.1 |
| 20260506220036 | 81 | 250 | 4.0 | 7.0 | 0.00 | 0.00 | 0.00 | 19 | 1015.1 |
| 20260506215020 | 80 | 352 | 1.0 | 9.0 | 0.00 | 0.00 | 0.00 | 20 | 1015.3 |
| 20260506214517 | 78 | 9 | 3.0 | 7.0 | 0.00 | 0.00 | 0.00 | 22 | 1015.4 |
| 20260506214013 | 79 | 213 | 2.0 | 6.0 | 0.00 | 0.00 | 0.00 | 20 | 1015.4 |
| 20260506213514 | 78 | 36 | 1.0 | 6.0 | 0.00 | 0.00 | 0.00 | 22 | 1015.5 |
| 20260506213021 | 80 | 293 | 4.0 | 8.0 | 0.00 | 0.00 | 0.00 | 21 | 1015.5 |
| 20260506212517 | 80 | 287 | 3.0 | 8.0 | 0.00 | 0.00 | 0.00 | 20 | 1015.6 |
| 20260506212013 | 79 | 312 | 3.0 | 8.0 | 0.00 | 0.00 | 0.00 | 21 | 1015.6 |
| 20260506211528 | 78 | 24 | 4.0 | 8.0 | 0.00 | 0.00 | 0.00 | 20 | 1015.7 |
| 20260506211024 | 79 | 290 | 3.0 | 8.0 | 0.00 | 0.00 | 0.00 | 20 | 1015.8 |
| 20260506210028 | 77 | 19 | 1.0 | 6.0 | 0.00 | 0.00 | 0.00 | 23 | 1016.0 |
| 20260506205513 | 79 | 31 | 2.0 | 9.0 | 0.00 | 0.00 | 0.00 | 21 | 1016.0 |
| 20260506205029 | 80 | 267 | 3.0 | 9.0 | 0.00 | 0.00 | 0.00 | 22 | 1016.1 |
| 20260506204524 | 76 | 211 | 2.0 | 6.0 | 0.00 | 0.00 | 0.00 | 23 | 1016.0 |
| 20260506204020 | 77 | 272 | 2.0 | 7.0 | 0.00 | 0.00 | 0.00 | 23 | 1016.1 |
| 20260506203516 | 79 | 281 | 2.0 | 7.0 | 0.00 | 0.00 | 0.00 | 22 | 1016.3 |
| 20260506203032 | 78 | 287 | 1.0 | 3.0 | 0.00 | 0.00 | 0.00 | 22 | 1016.3 |
| 20260506202528 | 78 | 309 | 1.0 | 7.0 | 0.00 | 0.00 | 0.00 | 22 | 1016.4 |
| 20260506202027 | 79 | 290 | 1.0 | 7.0 | 0.00 | 0.00 | 0.00 | 23 | 1016.4 |
| 20260506201523 | 77 | 287 | 2.0 | 5.0 | 0.00 | 0.00 | 0.00 | 25 | 1016.4 |
| 20260506201019 | 79 | 360 | 1.0 | 5.0 | 0.00 | 0.00 | 0.00 | 24 | 1016.5 |
| 20260506200515 | 78 | 358 | 2.0 | 4.0 | 0.00 | 0.00 | 0.00 | 24 | 1016.5 |
| 20260506200042 | 76 | 173 | 2.0 | 9.0 | 0.00 | 0.00 | 0.00 | 26 | 1016.6 |
| 20260506195524 | 77 | 240 | 1.0 | 12.0 | 0.00 | 0.00 | 0.00 | 24 | 1016.7 |
| 20260506195019 | 78 | 221 | 3.0 | 12.0 | 0.00 | 0.00 | 0.00 | 26 | 1016.8 |
| 20260506194519 | 77 | 298 | 1.0 | 10.0 | 0.00 | 0.00 | 0.00 | 27 | 1016.8 |
| 20260506194014 | 79 | 290 | 6.0 | 10.0 | 0.00 | 0.00 | 0.00 | 24 | 1016.9 |
| 20260506193530 | 76 | 206 | 0.0 | 6.0 | 0.00 | 0.00 | 0.00 | 27 | 1016.9 |
| 20260506193026 | 75 | 205 | 1.0 | 6.0 | 0.00 | 0.00 | 0.00 | 27 | 1017.0 |
| 20260506192521 | 77 | 280 | 2.0 | 6.0 | 0.00 | 0.00 | 0.00 | 26 | 1017.2 |
| 20260506192017 | 75 | 347 | 1.0 | 5.0 | 0.00 | 0.00 | 0.00 | 28 | 1017.2 |
| 20260506191513 | 75 | 358 | 2.0 | 5.0 | 0.00 | 0.00 | 0.00 | 28 | 1017.3 |
| 20260506191013 | 76 | 330 | 2.0 | 8.0 | 0.00 | 0.00 | 0.00 | 27 | 1017.2 |
| 20260506190529 | 74 | 102 | 3.0 | 10.0 | 0.00 | 0.00 | 0.00 | 29 | 1017.3 |
| 20260506190037 | 76 | 81 | 3.0 | 10.0 | 0.00 | 0.00 | 0.00 | 26 | 1017.3 |
| 20260506185518 | 76 | 296 | 1.0 | 7.0 | 0.00 | 0.00 | 0.00 | 27 | 1017.3 |
| 20260506185014 | 76 | 287 | 2.0 | 7.0 | 0.00 | 0.00 | 0.00 | 28 | 1017.4 |
| 20260506184530 | 74 | 342 | 3.0 | 10.0 | 0.00 | 0.00 | 0.00 | 30 | 1017.5 |
| 20260506184026 | 75 | 277 | 1.0 | 10.0 | 0.00 | 0.00 | 0.00 | 28 | 1017.5 |
| 20260506183522 | 75 | 286 | 3.0 | 8.0 | 0.00 | 0.00 | 0.00 | 29 | 1017.4 |
| 20260506183021 | 74 | 49 | 4.0 | 7.0 | 0.00 | 0.00 | 0.00 | 28 | 1017.5 |
| 20260506182517 | 75 | 29 | 1.0 | 8.0 | 0.00 | 0.00 | 0.00 | 29 | 1017.7 |
| 20260506182013 | 75 | 270 | 2.0 | 9.0 | 0.00 | 0.00 | 0.00 | 30 | 1017.7 |
| 20260506181529 | 76 | 285 | 4.0 | 9.0 | 0.00 | 0.00 | 0.00 | 28 | 1017.7 |
| 20260506181025 | 74 | 292 | 3.0 | 8.0 | 0.00 | 0.00 | 0.00 | 29 | 1017.9 |
| 20260506180521 | 73 | 145 | 1.0 | 7.0 | 0.00 | 0.00 | 0.00 | 30 | 1018.0 |
| 20260506180028 | 74 | 330 | 1.0 | 4.0 | 0.00 | 0.00 | 0.00 | 30 | 1018.0 |
| 20260506175513 | 72 | 295 | 2.0 | 6.0 | 0.00 | 0.00 | 0.00 | 31 | 1018.0 |
| 20260506175029 | 72 | 284 | 3.0 | 6.0 | 0.00 | 0.00 | 0.00 | 31 | 1018.0 |
| 20260506174525 | 73 | 329 | 2.0 | 4.0 | 0.00 | 0.00 | 0.00 | 30 | 1018.0 |
| 20260506174021 | 71 | 126 | 2.0 | 5.0 | 0.00 | 0.00 | 0.00 | 32 | 1018.0 |
| 20260506173517 | 69 | 133 | 2.0 | 6.0 | 0.00 | 0.00 | 0.00 | 32 | 1018.0 |
| 20260506173013 | 70 | 104 | 3.0 | 9.0 | 0.00 | 0.00 | 0.00 | 31 | 1018.0 |
| 20260506172528 | 70 | 49 | 2.0 | 5.0 | 0.00 | 0.00 | 0.00 | 33 | 1018.0 |
| 20260506172028 | 70 | 43 | 3.0 | 6.0 | 0.00 | 0.00 | 0.00 | 32 | 1018.0 |
| 20260506171524 | 70 | 38 | 3.0 | 7.0 | 0.00 | 0.00 | 0.00 | 34 | 1017.9 |
| 20260506171020 | 70 | 66 | 1.0 | 4.0 | 0.00 | 0.00 | 0.00 | 36 | 1017.9 |
| 20260506170516 | 70 | 22 | 1.0 | 6.0 | 0.00 | 0.00 | 0.00 | 35 | 1017.9 |
| 20260506170043 | 70 | 13 | 2.0 | 6.0 | 0.00 | 0.00 | 0.00 | 37 | 1018.0 |
| 20260506165525 | 69 | 60 | 1.0 | 4.0 | 0.00 | 0.00 | 0.00 | 36 | 1018.0 |
| 20260506165020 | 68 | 64 | 1.0 | 4.0 | 0.00 | 0.00 | 0.00 | 41 | 1018.0 |
| 20260506164520 | 69 | 64 | 1.0 | 7.0 | 0.00 | 0.00 | 0.00 | 38 | 1017.9 |
| 20260506164016 | 68 | 83 | 3.0 | 7.0 | 0.00 | 0.00 | 0.00 | 38 | 1018.0 |
| 20260506163512 | 68 | 360 | 1.0 | 6.0 | 0.00 | 0.00 | 0.00 | 39 | 1017.9 |
| 20260506163027 | 68 | 27 | 3.0 | 6.0 | 0.00 | 0.00 | 0.00 | 39 | 1017.9 |
| 20260506162523 | 68 | 335 | 1.0 | 3.0 | 0.00 | 0.00 | 0.00 | 37 | 1017.7 |
| 20260506162059 | 68 | 352 | 2.0 | 3.0 | 0.00 | 0.00 | 0.00 | 42 | 1017.7 |
| 20260506161529 | 68 | 10 | 2.0 | 3.0 | 0.00 | 0.00 | 0.00 | 43 | 1017.7 |
| 20260506161025 | 68 | 344 | 1.0 | 3.0 | 0.00 | 0.00 | 0.00 | 44 | 1017.7 |
| 20260506160521 | 68 | 344 | 1.0 | 2.0 | 0.00 | 0.00 | 0.00 | 43 | 1017.8 |
| 20260506160033 | 67 | 73 | 0.0 | 4.0 | 0.00 | 0.00 | 0.00 | 45 | 1017.8 |
| 20260506155515 | 66 | 73 | 1.0 | 4.0 | 0.00 | 0.00 | 0.00 | 46 | 1017.7 |
| 20260506155031 | 65 | 88 | 1.0 | 5.0 | 0.00 | 0.00 | 0.00 | 47 | 1017.8 |
| 20260506154526 | 65 | 88 | 2.0 | 5.0 | 0.00 | 0.00 | 0.00 | 49 | 1017.7 |
| 20260506154023 | 65 | 94 | 2.0 | 4.0 | 0.00 | 0.00 | 0.00 | 47 | 1017.7 |
| 20260506153518 | 65 | 94 | 0.0 | 3.0 | 0.00 | 0.00 | 0.00 | 49 | 1017.7 |
| 20260506153014 | 65 | 94 | 1.0 | 3.0 | 0.00 | 0.00 | 0.00 | 49 | 1017.6 |
| 20260506152514 | 64 | 94 | 1.0 | 3.0 | 0.00 | 0.00 | 0.00 | 50 | 1017.7 |
| 20260506152030 | 64 | 98 | 1.0 | 2.0 | 0.00 | 0.00 | 0.00 | 51 | 1017.7 |
| 20260506151525 | 63 | 97 | 1.0 | 4.0 | 0.00 | 0.00 | 0.00 | 51 | 1017.7 |
| 20260506151022 | 63 | 98 | 2.0 | 4.0 | 0.00 | 0.00 | 0.00 | 52 | 1017.7 |
| 20260506150518 | 63 | 105 | 2.0 | 3.0 | 0.00 | 0.00 | 0.00 | 52 | 1017.7 |
| 20260506150045 | 62 | 106 | 1.0 | 3.0 | 0.00 | 0.00 | 0.00 | 55 | 1017.7 |
| 20260506145527 | 62 | 106 | 2.0 | 4.0 | 0.00 | 0.00 | 0.00 | 56 | 1017.6 |
| 20260506145027 | 61 | 108 | 3.0 | 4.0 | 0.00 | 0.00 | 0.00 | 57 | 1017.5 |
| 20260506144523 | 61 | 120 | 2.0 | 4.0 | 0.00 | 0.00 | 0.00 | 58 | 1017.6 |
| 20260506144018 | 60 | 128 | 2.0 | 4.0 | 0.00 | 0.00 | 0.00 | 58 | 1017.7 |
| 20260506143514 | 60 | 128 | 2.0 | 4.0 | 0.00 | 0.00 | 0.00 | 59 | 1017.6 |
| 20260506143030 | 59 | 272 | 2.0 | 3.0 | 0.00 | 0.00 | 0.00 | 61 | 1017.7 |
| 20260506142526 | 60 | 276 | 0.0 | 3.0 | 0.00 | 0.00 | 0.00 | 61 | 1017.7 |
| 20260506142022 | 59 | 275 | 1.0 | 3.0 | 0.00 | 0.00 | 0.00 | 61 | 1017.7 |
| 20260506141522 | 59 | 276 | 1.0 | 2.0 | 0.00 | 0.00 | 0.00 | 61 | 1017.7 |
| 20260506141018 | 59 | 275 | 1.0 | 2.0 | 0.00 | 0.00 | 0.00 | 64 | 1017.6 |
| 20260506140513 | 59 | 273 | 1.0 | 2.0 | 0.00 | 0.00 | 0.00 | 63 | 1017.7 |
| 20260506140042 | 57 | 271 | 1.0 | 3.0 | 0.00 | 0.00 | 0.00 | 65 | 1017.6 |
| 20260506135523 | 57 | 270 | 2.0 | 3.0 | 0.00 | 0.00 | 0.00 | 66 | 1017.5 |
| 20260506135018 | 57 | 271 | 2.0 | 3.0 | 0.00 | 0.00 | 0.00 | 68 | 1017.6 |
| 20260506134513 | 56 | 272 | 2.0 | 3.0 | 0.00 | 0.00 | 0.00 | 68 | 1017.5 |
| 20260506134013 | 56 | 271 | 0.0 | 0.0 | 0.00 | 0.00 | 0.00 | 69 | 1017.5 |
| 20260506133530 | 57 | 271 | 0.0 | 0.0 | 0.00 | 0.00 | 0.00 | 70 | 1017.5 |
| 20260506133026 | 56 | 271 | 0.0 | 0.0 | 0.00 | 0.00 | 0.00 | 71 | 1017.4 |
| 20260506132522 | 55 | 271 | 0.0 | 0.0 | 0.00 | 0.00 | 0.00 | 73 | 1017.3 |
| 20260506132018 | 55 | 271 | 0.0 | 0.0 | 0.00 | 0.00 | 0.00 | 75 | 1017.3 |
| 20260506131514 | 54 | 271 | 0.0 | 0.0 | 0.00 | 0.00 | 0.00 | 76 | 1017.3 |
| 20260506131029 | 54 | 271 | 0.0 | 0.0 | 0.00 | 0.00 | 0.00 | 77 | 1017.2 |
| 20260506130525 | 53 | 271 | 0.0 | 0.0 | 0.00 | 0.00 | 0.00 | 77 | 1017.1 |
| 20260506130036 | 53 | 271 | 0.0 | 0.0 | 0.00 | 0.00 | 0.00 | 76 | 1017.1 |
| 20260506125518 | 52 | 271 | 0.0 | 0.0 | 0.00 | 0.00 | 0.00 | 77 | 1017.1 |
| 20260506125014 | 52 | 271 | 0.0 | 0.0 | 0.00 | 0.00 | 0.00 | 77 | 1017.1 |
| 20260506124529 | 52 | 273 | 0.0 | 0.0 | 0.00 | 0.00 | 0.00 | 77 | 1017.1 |
| 20260506124025 | 52 | 273 | 0.0 | 1.0 | 0.00 | 0.00 | 0.00 | 78 | 1017.0 |
| 20260506123521 | 51 | 273 | 0.0 | 1.0 | 0.00 | 0.00 | 0.00 | 78 | 1017.0 |
| 20260506123018 | 51 | 273 | 0.0 | 0.0 | 0.00 | 0.00 | 0.00 | 77 | 1017.0 |